Regional Weather Roundup
Issued by NWS

Home | Current Version | Previous Version | Text Only | Print | Product List | Glossary On
Versions: 1 2 3 4 5 6 7 8 9 10 11 12 13 14 15 16 17 18 19 20 21 22 23 24 25 26 27 28 29 30 31 32 33 34 35 36 37 38 39 40 41 42 43 44 45 46 47 48 49 50
000
ASUS42 KKEY 052210
RWRKEY

FLORIDA REGIONAL WEATHER ROUNDUP FOR THE FLORIDA KEYS
NATIONAL WEATHER SERVICE KEY WEST FLORIDA
600 PM EDT TUE MAY 05 2015

...SOUTH FLORIDA AND THE KEYS...

CITY           SKY/WX    TMP DP  RH WIND       PRES   REMARKS
FORT MYERS     PTSUNNY   77  66  68 NE17G26   30.04R
SW REGIONAL AP PTSUNNY   81  64  56 NE15      30.04S
NAPLES         PTSUNNY   82  63  52 E14       30.03S
MIAMI          PTSUNNY   79  65  62 NE13      30.02F
WEST KENDALL   PTSUNNY   78  67  68 E6        30.02S
HOMESTEAD      PTSUNNY   76  67  73 NE8       30.02S
MARATHON       CLOUDY    77  68  73 NE9       30.01S
BOCA CHICA NAS CLOUDY    78  69  73 E8        30.02S
KEY WEST INTL  PTSUNNY   77  70  79 E8        30.02S

...INTERNATIONAL WEATHER...

CITY           SKY/WX    TMP DP  RH WIND       PRES   REMARKS
NASSAU BAHAMAS PTSUNNY   77  70  78 N5        30.01S
CANCUN MEXICO  MOSUNNY   82  72  69 SE13      29.93F
COZUMEL MEXICO MOSUNNY   81  72  74 CALM      29.92F

ADJACENT COASTAL WATERS...

STATION/POSITION TIME  SKY/WX   TEMP    WIND        PRES    WAVE
                                AIR SEA DIR/SP/G            HT/PER
                 (UTC)          (F)     (DEG/KT/KT) (MB)    (FT/S)
PULASKI SHOAL LI 2100            76      90/ 17/ 18 1016.3F
SAND KEY         2150            75      70/ 12/ 14 1016.4F
SOMBRERO KEY     2200            76      70/  8/  9 1016.8F
LONG KEY         2200            74 76   30/  9/ 10 1017.3R
MOLASSES REEF    2200            75 79   60/  7/  8 1016.7R
FOWEY ROCKS      NOT AVBL

$$



USA.gov is the U.S. government's official web portal to all federal, state and local government web resources and services.